Погода Соловецкие Острова

Погода Соловецкие Острова : погода сейчас, прогноз погоды и архив. Всё, что Вы хотите узнать о погоде Соловецкие Острова!

Хотите узнать прогноз погоды Соловецкие Острова? Тогда Вам сюда: Погода Соловецкие Острова

Поиск расширенной информации на нашем сайте:

Другие новости

Новости СМИ2

Главная страница сайта

Новости сайта

03.07.2017

Напоминаем, что на нашем специализированном сайте Метеоцентр.Азия вы можете получить высокодетализированные автоматические прогнозы погоды по пунктам России, СНГ и мира в авиационном формате (включающие направление и скорость ветра, видимость, явления погоды, количество и форму облачности, нижнюю и верхнюю границу облачности).


Погода Соловецкие Острова - сегодня

Время (UTC), дата Ветер
(°,м/с) 
Видим.   Явления Облачность Т
(°С)
Тd
(°С)
f(%) Тe
(°С)
Pmin
(гПа)
dP
(гПа)
Po
(мм)
O2
(г/м3)
Тmin Tmax R s Состояние
почвы
15 14.10.17 080 (В) 9000 м  слаб. ливневой дождь  10/10 180 м кучево-дожд. 
[Cb cap]
+5.4 +4.8 96 +5  1009.9  -1  757  298    +6.2     
18 14.10.17 070 (В) 20000 м  в посл. час ливневой дождь  10/4 200 м кучево-дожд., средняя 
[Cb cap|As op]
+5.2 +4.6 96 +5  1008.4  -1.5  756  298           
21 14.10.17 070 (В) 20000 м    10/0 средняя 
[As op]
+4.8 +4.3 97 +6  1006.5  -2  754  298           
00 15.10.17 070 (В) 20000 м    10/8 330 м средняя 
[Sc|As op]
+4.5 +3.7 95 +5  1004.9  -1.5  753  298           
03 15.10.17 050 (СВ) 20000 м    9/4 600 м средняя 
[Sc|Ac As]
+3.9 +3.1 95 +5  1003.9  -1  752  298  +3.9    0.6     
06 15.10.17 350 (С) 5000 м  слаб. ливневой дождь  10/10 400 м кучево-дожд. 
[Cb cap]
+4.2 +3.6 96 +5  1003.7  -0.2  752  298           
09 15.10.17 020 (С) 9000 м  слаб. ливневой дождь  10/10 180 м кучево-дожд. 
[Cb cap]
+5.8 +5.2 96 +6  1004.5  0.8  753  296           
12 15.10.17 360 (С) 10 км  слаб. ливневой дождь  10/10 270 м кучево-дожд. 
[Cb cap]
+5.7 +5 95 +7  1005.7  1.2  754  297           
15 15.10.17 360 (С) 6000 м  слаб. морось{ливн. осадки}  10/10 450 м 
[Sc]
+5.5 +5.1 97 +6  1007.5  1.8  755  297    +6.1     
18 15.10.17 360 (С) 4000 м  слаб. морось{ливн. осадки}  10/10 180 м 
[St]
+5.6 +5.2 97 +5  1008.4  0.9  756  298           
21 15.10.17 020 (С) 4000 м  слаб. морось  10/10 180 м 
[St]
+5.5 +5.1 97 +6  1009.5  1.1  756  298           
00 16.10.17 300 (СЗ) 4000 м  слаб. морось  10/10 100 м 
[St]
+5.3 +5.1 99 +6  1010  0.5  757  298           
03 16.10.17 300 (СЗ) 20000 м  в посл. час морось  10/10 150 м 
[St]
+5 +4.7 98 +5  1009.7  -0.3  757  299  +5       
06 16.10.17 280 (З) 35000 м  {морось}  10/10 150 м 
[St]
+4.7 +4.2 97 +6  1008.8  -0.9  756  299  +4.6         
09 16.10.17 230 (ЮЗ) 35000 м  {ливн. осадки}  10/10 480 м кучево-дожд. 
[Cb cap]
+4.5 +2.5 87 +3  1007.2  -1.7  755  299           
12 16.10.17 190 (Ю) 7-10{10}  35000 м  {ливн. осадки}  9/9 480 м 
[Sc]
+4.3 +2.3 87 +1  1003.8  -3.3  752  298           
15 16.10.17 150 (ЮВ) 6-10{12}  4000 м  слаб. ливневой дождь  10/10 400 м кучево-дожд. 
[Cb cap]
+3.6 +2.5 92 +1  999.1  -4.7  749  297    +5  0.7     
18 16.10.17 160 (Ю) 10-16{17}  4000 м  слаб. ливневой дождь  10/10 180 м кучево-дожд. 
[Cb cap]
+4.5 +3.4 93 +1  992  -7.2  743  294           
21 16.10.17 210 (ЮЗ) 6-11{18}  20000 м  {ливн. осадки}  10/5 600 м средняя 
[Sc|Ac As]
+6.5 +5.3 92 +4  987.4  -4.5  740  290           
00 17.10.17 250 (З) 9-13{16}  20000 м  в посл. час ливневой дождь  10/8 800 м средняя 
[Sc|Ac As]
+6.3 +3.5 82 +3  985.5  -1.9  738  290           
03 17.10.17 290 (З) 8-14{16}  4000 м  слаб. ливневой дождь  10/10 480 м кучево-дожд. 
[Cb cap]
+3.8 +2.1 89 985.5  738  293  +3.6    13     
06 17.10.17 290 (З) 7-14{17}  4000 м  слаб. ливневой дождь  10/8 270 м кучево-дожд., средняя 
[Cb cap|As op]
+3.2 +1.8 91 986.8  1.3  739  294  +3.2         
09 17.10.17 300 (СЗ) 7-12{18}  25000 м  в посл. час ливневой дождь  10/8 500 м кучево-дожд., средняя 
[Cb cap|As op]
+4 +2.2 88 +1  990  3.2  742  294           
12 17.10.17 290 (З) 6-13{16}  27000 м  в посл. час ливневой дождь  10/8 600 м кучево-дожд., средняя 
[Cb cap|Ac As]
+4.8 +2.3 84 +2  993.5  3.5  744  294           
15 17.10.17 290 (З) 6-13{14}  20000 м    10/8 720 м кучево-дожд., средняя 
[Cb cap|Ac As]
+5 +2.2 82 +2  995.4  1.9  746  295    +5     
Время (UTC), дата Ветер
(°,м/с) 
Видим.   Явления Облачность Т
(°С)
Тd
(°С)
f(%) Тe
(°С)
Pmin
(гПа)
dP
(гПа)
Po
(мм)
O2
(г/м3)
Тmin Tmax R s Состояние
почвы

Для получения пояснительной информации подведите курсор к названию столбца.

ПОГОДА Соловецкие Острова - архив

Всё, что Вы хотите узнать о погоде Соловецкие Острова - удобно и подробно!

Выберите нужную дату (начиная с 1 января 2015* года) и нажмите кнопку "Найти".
Будут отображены архивные сводки погоды по пункту Соловецкие Острова, начиная с указанной даты.


Отображать данные в формате CSV (для использования в таблицах Excel)


Внимание! Наш архив погоды предназначен исключительно для личного некоммерческого использования в познавательных целях. Если Вам необходимы официальные справки о состоянии погоды (для производственных, юридических, коммерческих и т.п. целей), обращайтесь в органы Росгидромета.

*Примечание: данная дата относится к архиву по метеостанциям СССР (Россия, СНГ, Балтия).
Архив по метеостанциям Зарубежной Европы и Азии (кроме Китая) хранится 10 дней, по другим регионам земного шара (Китай, Африка, Америка, Австралия, Океания) - 1 день.

Соловецкие Острова - район местоположения метеостанции


Название, широта, долгота, высота метеостанции:
Соловецкие Острова (Кремль) 65°ш. 35.7°д. 7 м над ур. моря [Российская Федерация]

Дополнительная информация

В oтличие oт бoльшинства пoгoдных сайтoв мы публикуем пoдрoбную метеoинфoрмацию в детальнoм прoфессиoнальнoм фoрмате.

Характеристики температуры и влажнoсти вoздуха измеряются на высoте 2 м в тени вдали oт зданий и деревьев.
Скoрoсть ветра измеряется на высoте 10 м (на урoвне рoста челoвека скoрoсть ветра ниже в 1.5-2 раза). Если метеoстанция нахoдится в гoрoде или в лесу, тo скoрoсть ветра занижена на 2-4 м/с пo сравнению с oткрытым местoм. Скoрoсть ветра над акватoриями крупных рек и oзёр, а также на вершинах хoлмoв на 2-5 м/с выше, чем в oбычных услoвиях.
Атмoсфернoе давление в разных тoчках местнoсти мoжет значительнo oтличаться oт давления на метеoстанции, в зависимoсти oт услoвий рельефа (при пoдъёме на 10 м давление пoнижается примернo на 1 мм рт.ст.).